Погода в Житковичи

Погода в Житковичи : погода сейчас, прогноз погоды и архив. Всё, что Вы хотите узнать о погоде в Житковичи!

Хотите узнать прогноз погоды в Житковичи? Тогда Вам сюда: Погода в Житковичи

Поиск расширенной информации на нашем сайте:

Полезная информация: Круг отрезной инваб.

Другие новости

Новости СМИ2

Главная страница сайта

Новости сайта

03.07.2017

Напоминаем, что на нашем специализированном сайте Метеоцентр.Азия вы можете получить высокодетализированные автоматические прогнозы погоды по пунктам России, СНГ и мира в авиационном формате (включающие направление и скорость ветра, видимость, явления погоды, количество и форму облачности, нижнюю и верхнюю границу облачности).

Рекомендуем: Ворота гаражные секционные отзыв о гаражные секционные ворота.

Погода в Житковичи - сегодня

Время (UTC), дата Ветер
(°,м/с) 
Видим.   Явления Облачность Т
(°С)
Тd
(°С)
f(%) Тe
(°С)
Pmin
(гПа)
dP
(гПа)
Po
(мм)
O2
(г/м3)
Тmin Tmax R s Состояние
почвы
12 11.12.17 140 (ЮВ) 10 км  {ливн. осадки}  10/4 600 м средняя 
[Sc diur, vesp|Ac As]
+1.2 -0.8 86 +2  1003.9  -0.3  740  297           
15 11.12.17 130 (ЮВ) 4000 м  слаб. ливневой снег  10/8 600 м кучево-дожд., средняя 
[Cb cap|Ac und]
+0.4 -0.2 96 +1  1005.1  741  298      0.7     
18 11.12.17 160 (Ю) 10 км  {ливн. осадки}  3/3 600 м средняя 
[Ac trans]
+0.8 -0.9 88 1005.4  0.4  741  298    +1.4  0.7   
21 11.12.17 150 (ЮВ) 4000 м  дымка  6/0 верхняя 
[Ci fib]
+0.2 -0.9 92 +1  1006.1  0.6  742  299           
00 12.12.17 100 (В) 4000 м  дымка  9/0 средняя 
[Ac trans]
+1.5 +0.1 90 +2  1005.8  -0.2  742  297           
03 12.12.17 150 (ЮВ) 4000 м  дымка  9/9 600 м 
[Sc]
+2.8 +1.5 91 +4  1004.4  -1.3  741  295         
06 12.12.17 140 (ЮВ) 10 км    9/9 600 м 
[Sc]
+4.4 +2.2 86 +4  1003.7  -0.4  740  293  +0      мокрый или
старый снег
50-90% 
09 12.12.17 170 (Ю) 20000 м    9/3 1000 м средняя, верхняя 
[Sc|Ac trans|Ci fib]
+7.1 +3.2 76 +7  1003.7  0.1  740  290           
12 12.12.17 180 (Ю) 20000 м    10/0 средняя, верхняя 
[Ac trans|Cs]
+11 +4.6 65 +11  1003.9  0.3  741  286           
15 12.12.17 180 (Ю) 10 км    9/9 600 м 
[Sc]
+9.2 +4.6 73 +9  1005.4  1.4  742  288           
18 12.12.17 190 (Ю) 10 км    9/9 600 м 
[Sc]
+9.4 +5 74 +9  1007.5  2.1  743  289    +11.2       
21 12.12.17 200 (Ю) 10 км    8/0 верхняя 
[Ci fib]
+7.9 +5 82 +8  1009.8  2.1  745  291           
00 13.12.17 270 (З) 10 км    10/0 средняя 
[Ac und]
+8.1 +4.1 76 +8  1011  1.2  746  291           
03 13.12.17 280 (З) 10 км    10/6 600 м средняя 
[Sc|Ac und]
+5.7 -0.3 65 +4  1013.1  747  295           
06 13.12.17 210 (ЮЗ) 10 км    10/3 600 м средняя 
[Sc|Ac und]
+4.4 -2 63 +5  1014.1  0.9  748  297  +4.4         
09 13.12.17 230 (ЮЗ) 10 км    10/3 600 м средняя 
[Sc|Ac und]
+4 -0.6 72 +4  1016.3  2.1  750  298           
12 13.12.17 270 (З) 10 км    10/0 средняя, верхняя 
[Ac trans|Cs]
+4 -0.9 70 +5  1015.9  -0.4  749  298           
15 13.12.17 270 (З) 10 км    10/8 600 м верхняя 
[Sc|Cs]
+2.6 -1.3 75 +3  1015.7  -0.2  749  299           
18 13.12.17 тихо ()   4000 м  дымка  9/0 средняя 
[Ac trans]
-0.5 -1.4 94 -1  1015.9  -0.1  749  303    +4.6       
21 13.12.17 тихо ()   4000 м  дымка  8/0 верхняя 
[Ci fib]
-1.9 -2.8 94 -2  1015.2  -0.8  748  304           
00 14.12.17 тихо ()   4000 м  дымка  9/0 средняя 
[Ac trans]
-1.8 -2.6 94 -2  1013.1  -2  747  303           
03 14.12.17 090 (В) 4000 м  дымка  9/9 600 м 
[Sc]
-1.3 -2.1 94 -1  1011.3  -1.7  746  302           
06 14.12.17 140 (ЮВ) 4000 м  дымка  9/9 600 м 
[Sc]
-0.2 -1.1 94 1009  -2.2  744  300  -2.4         
09 14.12.17 180 (Ю) 10 км    9/9 600 м 
[Sc]
+0.9 -0.8 88 1007.2  -1.7  743  298           
12 14.12.17 190 (Ю) 10 км    9/9 600 м 
[Sc]
+2.2 -0.3 84 +2  1004.8  -2.4  741  296           
Время (UTC), дата Ветер
(°,м/с) 
Видим.   Явления Облачность Т
(°С)
Тd
(°С)
f(%) Тe
(°С)
Pmin
(гПа)
dP
(гПа)
Po
(мм)
O2
(г/м3)
Тmin Tmax R s Состояние
почвы

Для получения пояснительной информации подведите курсор к названию столбца.

ПОГОДА в Житковичи - архив

Всё, что Вы хотите узнать о погоде в Житковичи - удобно и подробно!

Выберите нужную дату (начиная с 1 января 2015* года) и нажмите кнопку "Найти".
Будут отображены архивные сводки погоды по пункту Житковичи, начиная с указанной даты.


Отображать данные в формате CSV (для использования в таблицах Excel)


Внимание! Наш архив погоды предназначен исключительно для личного некоммерческого использования в познавательных целях. Если Вам необходимы официальные справки о состоянии погоды (для производственных, юридических, коммерческих и т.п. целей), обращайтесь в органы Росгидромета.

*Примечание: данная дата относится к архиву по метеостанциям СССР (Россия, СНГ, Балтия).
Архив по метеостанциям Зарубежной Европы и Азии (кроме Китая) хранится 10 дней, по другим регионам земного шара (Китай, Африка, Америка, Австралия, Океания) - 1 день.

Житковичи - район местоположения метеостанции


Название, широта, долгота, высота метеостанции:
Житковичи 52.2°ш. 27.9°д. 137 м над ур. моря [Беларусь]

Дополнительная информация

В oтличие oт бoльшинства пoгoдных сайтoв мы публикуем пoдрoбную метеoинфoрмацию в детальнoм прoфессиoнальнoм фoрмате.

Характеристики температуры и влажнoсти вoздуха измеряются на высoте 2 м в тени вдали oт зданий и деревьев.
Скoрoсть ветра измеряется на высoте 10 м (на урoвне рoста челoвека скoрoсть ветра ниже в 1.5-2 раза). Если метеoстанция нахoдится в гoрoде или в лесу, тo скoрoсть ветра занижена на 2-4 м/с пo сравнению с oткрытым местoм. Скoрoсть ветра над акватoриями крупных рек и oзёр, а также на вершинах хoлмoв на 2-5 м/с выше, чем в oбычных услoвиях.
Атмoсфернoе давление в разных тoчках местнoсти мoжет значительнo oтличаться oт давления на метеoстанции, в зависимoсти oт услoвий рельефа (при пoдъёме на 10 м давление пoнижается примернo на 1 мм рт.ст.).